QPF
0.00 0.00 0.00 0.00 0.00 0.00 0.00 0.00 0.00 0.00 0.00 0.00 0.00 0.00 0.00 0.00 0.00 0.00 0.00 0.00 0.00 0.00 0.00 0.00 0.00 0.00 0.00 0.00 0.00 0.00 0.00 0.00 0.00 0.00 0.00 0.00 0.00 0.00 0.00 0.00 0.00 0.00 0.00 0.00 0.00 0.00 0.00 0.00 0.00 0.00 0.00 0.00 0.00 0.00
0.00 0.00 0.00 0.00 0.00 0.00 0.00 0.00 0.00 0.00 0.00 0.00 0.00 0.00 0.00 0.00 0.00 0.00 0.00 0.00 0.00 0.00 0.00 0.00 0.00 0.00 0.00 0.00 0.00 0.00 0.00 0.00 0.00 0.00 0.00 0.00 0.00 0.00 0.00 0.00 0.00 0.00 0.00 0.00 0.00 0.00 0.00 0.00 0.00 0.00 0.00 0.00 0.00 0.00
0.00 0.00 0.00 0.00 0.00 0.00 0.00 0.00 0.00 0.00 0.00 0.00 0.00 0.00 0.00 0.00 0.00 0.00 0.00 0.00 0.00 0.00 0.00 0.00 0.00 0.00 0.00 0.00 0.00 0.00 0.00 0.00 0.00 0.00 0.00 0.00 0.00 0.00 0.00 0.00 0.00 0.00 0.00 0.00 0.00 0.00 0.00 0.00 0.00 0.00 0.00 0.00 0.00 0.00
0.00 0.00 0.00 0.00 0.00 0.00 0.00 0.00 0.00 0.00 0.00 0.00 0.00 0.00 0.00 0.00 0.00 0.00 0.00 0.00 0.00 0.00 0.00 0.00 0.00 0.00 0.00 0.00 0.00 0.00 0.00 0.00 0.00 0.00 0.00 0.00 0.00 0.00 0.00 0.00 0.00 0.00 0.00 0.00 0.00 0.00 0.00 0.00 0.00 0.00 0.00 0.00 0.00 0.00
0.00 0.00 0.00 0.00 0.00 0.00 0.00 0.00 0.00 0.00 0.00 0.00 0.00 0.00 0.00 0.00 0.00 0.00 0.00 0.00 0.00 0.00 0.00 0.00 0.00 0.00 0.00 0.00 0.00 0.00 0.00 0.00 0.00 0.00 0.00 0.00 0.00 0.00 0.00 0.00 0.00 0.00 0.00 0.00 0.00 0.00 0.01 0.01 0.00 0.00 0.00 0.00 0.00 0.00
0.00 0.00 0.00 0.00 0.00 0.00 0.00 0.00 0.00 0.00 0.00 0.00 0.00 0.00 0.00 0.00 0.00 0.00 0.00 0.00 0.00 0.00 0.00 0.00 0.00 0.00 0.00 0.00 0.00 0.00 0.00 0.00 0.00 0.00 0.00 0.00 0.00 0.00 0.00 0.00 0.00 0.00 0.00 0.00 0.01 0.01 0.00 0.00 0.00 0.00 0.00 0.00 0.00 0.00
0.00 0.00 0.00 0.00 0.00 0.00 0.00 0.00 0.00 0.00 0.00 0.00 0.00 0.00 0.00 0.00 0.00 0.00 0.00 0.00 0.00 0.00 0.00 0.00 0.00 0.00 0.00 0.00 0.00 0.00 0.00 0.00 0.00 0.00 0.00 0.00 0.00 0.00 0.00 0.00 0.00 0.00 0.00 0.00 0.00 0.00 0.00 0.00 0.00 0.00 0.00 0.00 0.00 0.00
0.00 0.00 0.00 0.00 0.00 0.00 0.00 0.00 0.00 0.00 0.01 0.00 0.00 0.00 0.01 0.00 0.00 0.00 0.00 0.00 0.00 0.00 0.00 0.00 0.00 0.00 0.00 0.00 0.00 0.00 0.00 0.00 0.00 0.00 0.00 0.00 0.00 0.00 0.00 0.00 0.00 0.00 0.00 0.00 0.00 0.00 0.00 0.00 0.00 0.00 0.00 0.00 0.00 0.00
0.00 0.00 0.00 0.00 0.00 0.00 0.00 0.00 0.00 0.00 0.00 0.01 0.01 0.02 0.02 0.01 0.00 0.00 0.00 0.00 0.00 0.00 0.00 0.00 0.00 0.00 0.00 0.00 0.00 0.00 0.00 0.00 0.00 0.00 0.00 0.00 0.00 0.00 0.00 0.00 0.00 0.00 0.00 0.00 0.00 0.00 0.00 0.00 0.00 0.00 0.00 0.00 0.00 0.00
0.00 0.00 0.00 0.00 0.00 0.00 0.00 0.00 0.00 0.00 0.00 0.00 0.00 0.00 0.00 0.00 0.00 0.00 0.00 0.00 0.00 0.00 0.00 0.00 0.00 0.00 0.00 0.00 0.00 0.00 0.00 0.00 0.00 0.00 0.00 0.00 0.00 0.00 0.00 0.00 0.00 0.00 0.00 0.00 0.00 0.00 0.00 0.00 0.00 0.00 0.00 0.00 0.00 0.00
0.00 0.00 0.00 0.00 0.00 0.00 0.00 0.00 0.00 0.00 0.00 0.00 0.00 0.00 0.00 0.00 0.00 0.00 0.00 0.00 0.00 0.00 0.00 0.00 0.00 0.00 0.00 0.00 0.00 0.00 0.00 0.00 0.00 0.00 0.00 0.00 0.00 0.00 0.00 0.00 0.00 0.00 0.00 0.00 0.00 0.00 0.00 0.00 0.00 0.00 0.00 0.00 0.00 0.00
0.00 0.00 0.00 0.00 0.00 0.00 0.00 0.00 0.00 0.00 0.00 0.00 0.00 0.00 0.00 0.00 0.00 0.00 0.00 0.00 0.00 0.00 0.00 0.00 0.00 0.00 0.00 0.00 0.00 0.00 0.00 0.00 0.00 0.00 0.00 0.00 0.00 0.00 0.00 0.00 0.00 0.00 0.00 0.00 0.00 0.00 0.00 0.00 0.00 0.00 0.00 0.00 0.00 0.00
0.00 0.00 0.00 0.00 0.00 0.00 0.00 0.00 0.00 0.00 0.00 0.00 0.00 0.00 0.00 0.00 0.00 0.00 0.00 0.00 0.00 0.00 0.00 0.00 0.00 0.00 0.00 0.00 0.00 0.00 0.00 0.00 0.00 0.00 0.00 0.00 0.00 0.00 0.00 0.00 0.00 0.00 0.00 0.00 0.00 0.00 0.00 0.00 0.00 0.00 0.00 0.00 0.00 0.00
0.00 0.00 0.00 0.00 0.00 0.00 0.00 0.01 0.00 0.00 0.00 0.00 0.00 0.00 0.00 0.00 0.00 0.00 0.00 0.00 0.00 0.00 0.00 0.00 0.00 0.00 0.00 0.00 0.00 0.00 0.00 0.00 0.00 0.00 0.00 0.00 0.00 0.00 0.00 0.00 0.00 0.00 0.00 0.00 0.00 0.00 0.00 0.00 0.00 0.00 0.00 0.00 0.00 0.00
0.00 0.00 0.00 0.00 0.00 0.00 0.01 0.01 0.01 0.01 0.00 0.00 0.00 0.00 0.00 0.00 0.00 0.00 0.00 0.00 0.00 0.00 0.00 0.00 0.00 0.00 0.00 0.00 0.00 0.00 0.00 0.00 0.00 0.00 0.00 0.00 0.00 0.00 0.00 0.00 0.00 0.00 0.00 0.00 0.00 0.00 0.00 0.00 0.00 0.00 0.00 0.00 0.00 0.00
0.01 0.00 0.00 0.00 0.00 0.00 0.00 0.00 0.00 0.00 0.00 0.00 0.00 0.00 0.00 0.00 0.00 0.00 0.00 0.00 0.00 0.00 0.00 0.00 0.00 0.00 0.00 0.00 0.00 0.00 0.00 0.00 0.00 0.00 0.00 0.00 0.00 0.00 0.00 0.00 0.00 0.00 0.00 0.00 0.00 0.00 0.00 0.00 0.00 0.00 0.00 0.00 0.00 0.00
0.01 0.00 0.00 0.00 0.00 0.00 0.00 0.00 0.00 0.00 0.00 0.00 0.00 0.00 0.00 0.00 0.00 0.00 0.00 0.00 0.00 0.00 0.00 0.00 0.00 0.00 0.00 0.00 0.00 0.00 0.00 0.00 0.00 0.00 0.00 0.00 0.00 0.00 0.00 0.00 0.00 0.00 0.00 0.00 0.00 0.00 0.00 0.00 0.00 0.00 0.00 0.00 0.00 0.00
0.00 0.00 0.00 0.00 0.00 0.00 0.00 0.00 0.00 0.00 0.00 0.00 0.00 0.00 0.00 0.00 0.00 0.00 0.00 0.00 0.00 0.00 0.00 0.00 0.00 0.00 0.00 0.00 0.00 0.00 0.00 0.00 0.00 0.00 0.00 0.00 0.00 0.00 0.00 0.00 0.00 0.00 0.00 0.00 0.00 0.00 0.00 0.00 0.00 0.00 0.00 0.00 0.00 0.00
0.00 0.00 0.00 0.00 0.00 0.00 0.00 0.00 0.00 0.00 0.00 0.00 0.00 0.00 0.00 0.00 0.00 0.00 0.00 0.00 0.00 0.00 0.00 0.00 0.00 0.00 0.00 0.00 0.00 0.00 0.00 0.00 0.00 0.00 0.00 0.00 0.00 0.00 0.00 0.00 0.00 0.00 0.00 0.00 0.00 0.00 0.00 0.00 0.00 0.00 0.00 0.00 0.00 0.00
0.00 0.00 0.00 0.00 0.00 0.00 0.00 0.00 0.00 0.00 0.00 0.00 0.00 0.00 0.00 0.00 0.00 0.00 0.00 0.00 0.00 0.00 0.00 0.00 0.00 0.00 0.00 0.00 0.00 0.00 0.00 0.00 0.00 0.00 0.00 0.00 0.00 0.00 0.00 0.00 0.00 0.00 0.00 0.00 0.00 0.00 0.00 0.00 0.00 0.00 0.00 0.00 0.00 0.00
0.00 0.00 0.00 0.00 0.00 0.00 0.00 0.00 0.00 0.00 0.00 0.00 0.00 0.00 0.00 0.00 0.00 0.00 0.00 0.00 0.00 0.00 0.00 0.00 0.00 0.00 0.00 0.00 0.00 0.00 0.00 0.00 0.00 0.00 0.00 0.00 0.00 0.00 0.00 0.00 0.00 0.00 0.00 0.00 0.00 0.00 0.00 0.00 0.00 0.00 0.00 0.00 0.00 0.00
0.00 0.00 0.00 0.00 0.00 0.00 0.00 0.00 0.00 0.00 0.00 0.00 0.00 0.00 0.00 0.00 0.00 0.00 0.00 0.00 0.00 0.00 0.00 0.00 0.00 0.00 0.00 0.00 0.00 0.00 0.00 0.00 0.00 0.00 0.00 0.00 0.00 0.00 0.00 0.00 0.00 0.00 0.00 0.00 0.00 0.00 0.00 0.00 0.00 0.00 0.00 0.00 0.00 0.00
0.00 0.00 0.00 0.00 0.00 0.00 0.00 0.00 0.00 0.00 0.00 0.00 0.00 0.00 0.00 0.00 0.00 0.00 0.00 0.00 0.00 0.00 0.00 0.00 0.00 0.00 0.00 0.00 0.00 0.00 0.00 0.00 0.00 0.00 0.00 0.00 0.00 0.00 0.00 0.00 0.00 0.00 0.00 0.00 0.00 0.00 0.00 0.00 0.00 0.00 0.00 0.00 0.00 0.00
0.00 0.00 0.00 0.00 0.00 0.00 0.00 0.00 0.00 0.00 0.00 0.00 0.00 0.00 0.00 0.00 0.00 0.00 0.00 0.00 0.00 0.00 0.00 0.00 0.00 0.00 0.00 0.00 0.00 0.00 0.00 0.00 0.00 0.00 0.00 0.00 0.00 0.00 0.00 0.00 0.00 0.00 0.00 0.00 0.00 0.00 0.00 0.00 0.00 0.00 0.00 0.00 0.00 0.00
0.00 0.00 0.00 0.00 0.00 0.00 0.00 0.00 0.00 0.00 0.00 0.00 0.00 0.00 0.00 0.00 0.00 0.00 0.00 0.00 0.00 0.00 0.00 0.00 0.00 0.00 0.00 0.00 0.00 0.00 0.00 0.00 0.00 0.00 0.00 0.00 0.00 0.00 0.00 0.00 0.00 0.00 0.00 0.00 0.00 0.00 0.00 0.00 0.00 0.00 0.00 0.00 0.00 0.00
0.00 0.00 0.00 0.00 0.00 0.00 0.00 0.00 0.00 0.00 0.00 0.00 0.00 0.00 0.00 0.00 0.00 0.00 0.00 0.00 0.00 0.00 0.00 0.00 0.00 0.00 0.00 0.00 0.00 0.00 0.00 0.00 0.00 0.00 0.00 0.00 0.00 0.00 0.00 0.00 0.00 0.00 0.00 0.00 0.00 0.00 0.00 0.00 0.00 0.00 0.00 0.00 0.00 0.00
0.00 0.00 0.00 0.00 0.00 0.00 0.00 0.00 0.00 0.00 0.00 0.00 0.00 0.00 0.00 0.00 0.00 0.00 0.00 0.00 0.00 0.00 0.00 0.00 0.00 0.00 0.00 0.00 0.00 0.00 0.00 0.00 0.00 0.00 0.00 0.00 0.00 0.00 0.00 0.00 0.00 0.00 0.00 0.00 0.00 0.00 0.00 0.00 0.00 0.00 0.00 0.00 0.00 0.00
0.00 0.00 0.00 0.00 0.00 0.00 0.00 0.00 0.00 0.00 0.00 0.00 0.00 0.00 0.00 0.00 0.00 0.00 0.00 0.00 0.00 0.00 0.00 0.00 0.00 0.00 0.00 0.00 0.00 0.00 0.00 0.00 0.00 0.00 0.00 0.00 0.00 0.00 0.00 0.00 0.00 0.00 0.00 0.00 0.00 0.00 0.00 0.00 0.00 0.00 0.00 0.00 0.00 0.00
0.00 0.00 0.00 0.00 0.00 0.00 0.00 0.00 0.00 0.00 0.00 0.00 0.00 0.00 0.00 0.00 0.00 0.00 0.00 0.00 0.00 0.00 0.00 0.00 0.00 0.00 0.00 0.00 0.00 0.00 0.00 0.00 0.00 0.00 0.00 0.00 0.00 0.00 0.00 0.00 0.00 0.00 0.00 0.00 0.00 0.00 0.00 0.00 0.00 0.00 0.00 0.00 0.00 0.00
0.00 0.00 0.00 0.00 0.00 0.00 0.00 0.00 0.00 0.00 0.00 0.00 0.00 0.00 0.00 0.00 0.00 0.00 0.00 0.00 0.00 0.00 0.00 0.00 0.00 0.00 0.00 0.00 0.00 0.00 0.00 0.00 0.00 0.00 0.00 0.00 0.00 0.00 0.00 0.00 0.00 0.00 0.00 0.00 0.00 0.00 0.00 0.00 0.00 0.00 0.00 0.00 0.00 0.00
0.00 0.00 0.00 0.00 0.00 0.00 0.00 0.00 0.00 0.00 0.00 0.00 0.00 0.00 0.00 0.00 0.00 0.00 0.00 0.00 0.00 0.00 0.00 0.00 0.00 0.00 0.00 0.00 0.00 0.00 0.00 0.00 0.00 0.00 0.00 0.00 0.00 0.00 0.00 0.00 0.00 0.00 0.00 0.00 0.00 0.00 0.00 0.00 0.00 0.00 0.00 0.00 0.00 0.00
0.00 0.00 0.00 0.00 0.00 0.00 0.00 0.00 0.00 0.00 0.00 0.00 0.00 0.00 0.00 0.00 0.00 0.00 0.00 0.00 0.00 0.00 0.00 0.00 0.00 0.00 0.00 0.00 0.00 0.00 0.00 0.00 0.00 0.00 0.00 0.00 0.00 0.00 0.00 0.00 0.00 0.00 0.00 0.00 0.00 0.00 0.00 0.00 0.00 0.00 0.00 0.00 0.00 0.00
0.00 0.00 0.00 0.00 0.00 0.00 0.00 0.00 0.00 0.00 0.00 0.00 0.00 0.00 0.00 0.00 0.00 0.00 0.00 0.00 0.00 0.00 0.00 0.00 0.00 0.00 0.00 0.00 0.00 0.00 0.00 0.00 0.00 0.00 0.00 0.00 0.00 0.00 0.00 0.00 0.00 0.00 0.00 0.00 0.00 0.00 0.00 0.00 0.00 0.00 0.00 0.00 0.00 0.00
MSLP
1014.16 1014.31 1014.58 1014.90 1015.36 1015.79 1016.22 1016.46 1016.71 1017.14 1017.42 1017.53 1017.48 1017.47 1017.34 1017.19 1017.00 1016.87 1018.08 1017.97 1018.09 1019.79 1020.38 1020.01 1020.03 1020.44 1021.22 1021.69 1022.64 1023.81 1024.59 1025.10 1026.08 1026.86 1027.72 1028.17 1028.21 1027.57 1027.47 1026.81 1026.44 1026.69 1026.73 1026.54 1026.38 1025.39 1023.40 1022.01 1022.19 1022.35 1022.50 1022.35 1022.54 1022.48
1014.16 1014.19 1014.46 1014.77 1015.16 1015.55 1015.96 1016.33 1016.54 1016.95 1017.36 1017.52 1017.52 1017.56 1017.49 1017.36 1017.21 1016.99 1018.01 1018.19 1018.25 1019.14 1020.45 1020.28 1020.03 1019.92 1019.93 1020.25 1021.36 1023.07 1023.60 1024.09 1024.84 1026.21 1027.54 1028.09 1028.03 1027.92 1027.06 1026.63 1025.86 1025.68 1025.03 1024.82 1024.90 1023.29 1022.03 1022.01 1021.84 1022.09 1022.52 1022.88 1023.05 1023.34
1014.49 1014.52 1014.54 1014.61 1014.84 1015.21 1015.66 1016.09 1016.41 1016.78 1017.19 1017.50 1017.63 1017.64 1017.66 1017.64 1017.50 1017.31 1018.22 1018.56 1018.85 1020.05 1020.85 1020.62 1020.54 1020.35 1020.01 1020.11 1020.34 1021.65 1023.45 1023.46 1024.26 1024.68 1026.20 1027.06 1027.22 1026.71 1026.63 1025.94 1025.11 1024.39 1024.14 1024.06 1023.97 1022.20 1021.71 1021.63 1021.85 1022.53 1022.87 1023.00 1023.31 1023.54
1014.76 1014.70 1014.73 1014.66 1014.65 1014.87 1015.22 1015.63 1016.09 1016.53 1016.91 1017.30 1017.59 1017.64 1017.72 1017.83 1017.84 1017.69 1018.30 1018.85 1019.20 1020.81 1021.60 1021.54 1020.92 1020.69 1020.40 1020.25 1020.42 1020.84 1021.78 1023.10 1024.07 1024.96 1025.96 1026.42 1026.42 1025.50 1025.41 1024.55 1024.36 1023.63 1023.74 1022.93 1022.48 1021.72 1021.44 1021.59 1021.87 1022.24 1022.82 1023.19 1023.45 1023.43
1014.90 1014.67 1014.77 1014.81 1014.55 1014.55 1014.83 1015.21 1015.64 1016.19 1016.67 1017.20 1017.64 1017.86 1017.88 1017.97 1018.11 1018.21 1018.56 1018.89 1018.95 1019.65 1021.41 1021.92 1021.27 1021.23 1021.01 1020.73 1020.84 1021.18 1021.87 1022.94 1024.23 1025.19 1025.63 1025.72 1025.29 1025.25 1024.85 1024.69 1023.85 1022.98 1022.46 1022.34 1021.52 1021.38 1021.74 1021.85 1022.17 1022.84 1023.07 1023.26 1023.21 1023.39
1015.12 1014.83 1014.78 1014.84 1014.60 1014.41 1014.53 1014.85 1015.28 1015.80 1016.46 1017.13 1017.61 1017.95 1018.09 1018.20 1018.29 1018.58 1019.29 1019.43 1019.18 1019.26 1020.98 1022.29 1022.28 1021.90 1021.63 1021.37 1021.47 1021.93 1022.26 1022.90 1023.57 1024.13 1024.57 1024.48 1023.71 1024.01 1024.15 1023.64 1022.59 1021.91 1021.54 1021.31 1021.53 1021.79 1022.10 1022.19 1022.76 1023.02 1023.24 1023.26 1023.30 1023.43
1015.43 1015.26 1015.03 1015.03 1014.94 1014.63 1014.46 1014.54 1014.84 1015.39 1016.05 1016.79 1017.35 1017.71 1018.04 1018.20 1018.39 1019.23 1019.61 1019.48 1019.21 1019.49 1021.00 1022.39 1022.54 1022.58 1022.36 1022.32 1022.70 1022.81 1022.89 1023.03 1023.22 1023.69 1023.89 1023.88 1023.80 1023.71 1023.54 1022.92 1022.10 1021.86 1021.66 1021.57 1021.65 1021.84 1022.59 1022.89 1023.18 1023.37 1023.55 1023.50 1023.42 1023.26
1015.54 1015.42 1015.41 1015.22 1015.09 1014.76 1014.50 1014.46 1014.56 1014.97 1015.58 1016.39 1017.01 1017.53 1018.02 1018.45 1018.96 1019.40 1019.45 1019.41 1019.54 1020.39 1021.41 1022.61 1022.97 1023.16 1022.82 1023.22 1023.67 1023.68 1023.56 1023.40 1023.36 1023.50 1023.78 1023.76 1023.70 1023.47 1023.06 1022.39 1022.39 1022.22 1022.02 1022.00 1022.07 1022.08 1022.71 1023.38 1023.63 1023.62 1023.46 1023.21 1023.03 1022.91
1015.85 1015.83 1015.77 1015.28 1015.10 1015.04 1014.79 1014.64 1014.48 1014.83 1015.14 1015.96 1016.87 1017.72 1018.32 1018.61 1018.92 1019.24 1019.59 1019.53 1019.86 1020.64 1021.56 1022.29 1022.76 1022.99 1022.95 1023.51 1023.82 1023.95 1023.80 1023.87 1024.02 1023.85 1023.91 1023.93 1023.54 1023.46 1023.26 1023.24 1023.02 1022.71 1022.61 1023.09 1023.15 1023.37 1023.56 1023.70 1023.62 1023.48 1023.52 1023.36 1023.21 1022.86
1015.94 1016.02 1015.98 1015.79 1015.50 1015.30 1015.02 1014.96 1014.78 1014.83 1015.18 1015.86 1016.94 1018.05 1018.67 1019.00 1018.93 1019.32 1019.59 1020.11 1020.31 1021.18 1021.70 1021.72 1022.22 1022.69 1022.77 1023.57 1023.93 1024.33 1024.14 1024.22 1024.40 1024.45 1024.21 1023.85 1023.41 1023.53 1023.62 1023.72 1023.77 1023.57 1023.23 1023.56 1023.80 1023.94 1023.89 1023.88 1023.89 1023.76 1023.63 1023.46 1023.34 1023.18
1016.01 1015.96 1015.99 1015.82 1015.74 1015.56 1015.33 1015.36 1015.38 1015.40 1015.72 1016.22 1017.51 1018.40 1019.15 1019.10 1019.23 1019.78 1020.34 1020.89 1021.47 1021.82 1022.05 1022.18 1022.28 1022.32 1022.89 1023.42 1023.92 1024.26 1024.41 1024.62 1024.81 1024.87 1024.65 1024.12 1023.70 1023.78 1023.91 1024.11 1024.19 1023.94 1023.97 1024.14 1024.14 1024.20 1024.28 1024.27 1024.13 1023.90 1023.53 1023.42 1023.26 1023.04
1016.22 1016.28 1016.39 1016.29 1016.09 1015.83 1015.78 1015.83 1015.89 1015.93 1016.47 1016.80 1017.26 1018.30 1018.99 1019.55 1019.94 1020.60 1020.92 1021.47 1021.67 1021.91 1022.36 1022.45 1022.63 1022.77 1023.42 1023.45 1023.92 1024.70 1024.82 1025.18 1025.36 1025.41 1025.09 1024.28 1023.85 1024.00 1024.04 1024.19 1024.33 1024.40 1024.40 1024.36 1024.34 1024.36 1024.30 1024.16 1023.97 1023.90 1023.74 1023.48 1023.22 1022.86
1016.45 1016.54 1016.46 1016.48 1016.43 1016.19 1016.32 1016.21 1016.20 1016.64 1016.97 1017.32 1017.84 1018.98 1019.59 1020.24 1020.42 1020.80 1021.29 1021.52 1021.91 1022.22 1022.65 1022.74 1023.22 1023.53 1023.90 1024.00 1024.44 1025.03 1025.54 1025.84 1025.88 1025.75 1025.05 1024.29 1024.05 1024.18 1024.34 1024.49 1024.57 1024.55 1024.42 1024.45 1024.41 1024.27 1024.15 1023.98 1023.80 1023.89 1023.76 1023.29 1023.02 1022.53
1016.48 1016.61 1016.59 1016.57 1016.59 1016.45 1016.26 1016.48 1016.56 1016.86 1017.50 1018.37 1019.16 1019.98 1020.49 1021.02 1020.89 1021.07 1021.38 1021.59 1022.18 1022.27 1022.57 1022.98 1023.75 1024.19 1024.64 1024.83 1025.21 1025.57 1026.29 1026.33 1026.19 1025.93 1024.82 1024.32 1024.19 1024.21 1024.42 1024.59 1024.69 1024.66 1024.61 1024.60 1024.33 1024.11 1024.00 1023.96 1023.66 1023.28 1023.35 1023.09 1022.81 1022.10
1016.31 1016.68 1016.83 1016.60 1016.77 1016.76 1016.87 1016.76 1016.54 1016.91 1018.24 1019.28 1019.92 1021.17 1021.60 1021.72 1021.59 1021.60 1021.61 1021.92 1022.34 1022.55 1022.82 1023.56 1024.27 1024.69 1025.41 1025.68 1026.00 1026.40 1026.72 1026.48 1026.01 1025.14 1024.38 1024.10 1024.19 1024.34 1024.34 1024.40 1024.61 1024.66 1024.56 1024.44 1024.14 1024.02 1023.80 1023.62 1023.59 1023.08 1022.54 1022.26 1022.00 1021.58
1016.16 1016.67 1016.76 1016.46 1016.86 1017.06 1017.03 1016.78 1017.01 1017.67 1019.37 1020.32 1021.42 1022.28 1022.42 1022.49 1022.48 1022.26 1022.18 1022.43 1022.63 1022.82 1023.24 1023.75 1024.73 1025.30 1025.72 1025.93 1026.43 1026.56 1026.77 1025.86 1024.98 1024.80 1024.40 1024.35 1024.24 1024.18 1024.18 1024.16 1024.12 1024.16 1024.12 1024.10 1023.93 1023.68 1023.48 1023.20 1023.02 1022.59 1021.99 1021.66 1021.24 1021.04
1015.72 1016.07 1016.36 1016.58 1017.06 1017.35 1017.34 1017.59 1018.31 1019.60 1020.57 1021.37 1022.29 1022.24 1022.32 1022.56 1022.61 1022.61 1022.49 1022.53 1022.64 1023.22 1023.94 1024.39 1025.11 1025.44 1026.24 1026.35 1026.50 1026.32 1025.57 1024.70 1024.43 1024.29 1024.21 1024.18 1024.06 1023.95 1023.79 1023.71 1023.58 1023.58 1023.55 1023.55 1023.51 1023.23 1022.89 1022.52 1022.47 1022.22 1021.54 1020.64 1020.43 1020.22
1015.75 1015.90 1016.46 1016.92 1017.03 1017.55 1018.55 1019.33 1020.32 1021.06 1022.09 1022.85 1022.90 1023.11 1023.14 1023.17 1023.14 1023.40 1023.03 1022.96 1023.05 1023.43 1023.97 1024.51 1025.25 1026.09 1026.10 1025.90 1025.30 1024.62 1024.55 1024.50 1024.43 1024.18 1023.94 1023.77 1023.57 1023.44 1023.41 1023.28 1023.07 1023.09 1022.98 1022.86 1022.87 1022.68 1022.40 1022.19 1022.01 1021.41 1020.91 1020.29 1019.92 1019.51
1015.50 1015.97 1016.61 1016.99 1017.22 1018.41 1020.11 1021.04 1021.20 1022.25 1023.22 1023.56 1023.81 1023.75 1023.69 1023.70 1023.62 1023.55 1023.53 1023.58 1023.41 1023.43 1023.95 1024.74 1025.35 1025.52 1025.12 1024.84 1024.36 1024.34 1024.33 1024.46 1024.09 1023.74 1023.52 1023.29 1023.20 1023.06 1022.91 1022.75 1022.64 1022.57 1022.34 1022.14 1022.10 1021.99 1021.88 1021.93 1021.71 1021.14 1020.51 1020.06 1019.55 1019.05
1015.84 1016.41 1017.21 1017.28 1017.32 1019.16 1020.98 1021.98 1021.90 1022.61 1023.64 1024.06 1024.11 1024.44 1024.44 1024.37 1024.34 1024.16 1023.97 1023.73 1023.66 1023.76 1024.24 1024.53 1024.34 1024.13 1024.12 1023.66 1023.55 1023.46 1023.38 1023.41 1023.55 1023.36 1022.87 1022.86 1022.73 1022.61 1022.47 1022.20 1021.95 1021.74 1021.65 1021.39 1021.46 1021.69 1021.35 1020.90 1020.61 1020.15 1019.89 1019.55 1019.04 1018.46
1016.71 1017.46 1017.61 1017.74 1019.37 1020.22 1021.66 1022.59 1023.17 1023.54 1023.86 1024.30 1024.79 1024.94 1025.23 1025.02 1024.82 1024.62 1024.45 1024.17 1024.16 1024.08 1023.87 1023.38 1023.14 1022.56 1022.57 1022.73 1022.77 1022.86 1022.88 1022.93 1022.83 1022.76 1022.32 1022.04 1022.11 1022.15 1021.83 1021.46 1021.24 1021.22 1021.23 1021.08 1021.12 1021.01 1020.88 1020.46 1019.90 1019.51 1019.19 1018.87 1018.53 1018.08
1017.47 1017.72 1018.76 1019.35 1020.67 1021.67 1022.60 1023.37 1023.66 1024.08 1024.51 1025.11 1025.35 1025.48 1026.10 1026.01 1025.48 1025.01 1024.72 1024.68 1024.31 1023.61 1022.85 1022.29 1022.06 1022.07 1022.16 1022.25 1022.00 1022.02 1021.87 1021.91 1022.10 1022.05 1021.86 1021.69 1021.59 1021.42 1021.10 1020.82 1020.87 1020.70 1020.65 1020.55 1020.47 1020.39 1020.07 1019.77 1019.34 1018.98 1018.66 1018.19 1017.74 1017.28
1017.54 1018.43 1019.95 1020.91 1022.16 1023.09 1024.23 1023.91 1024.26 1024.77 1025.31 1025.95 1026.21 1026.71 1026.90 1026.65 1026.16 1025.63 1025.22 1024.51 1023.68 1022.44 1022.07 1022.07 1021.69 1021.49 1021.51 1021.34 1021.34 1021.30 1021.38 1021.51 1021.49 1021.31 1021.16 1021.06 1020.84 1020.59 1020.38 1020.15 1020.23 1020.29 1020.17 1019.79 1019.80 1019.72 1019.48 1019.12 1018.75 1018.46 1018.04 1017.48 1017.05 1016.53
1018.00 1019.99 1021.46 1022.46 1023.49 1024.65 1024.50 1024.92 1024.95 1025.33 1025.82 1026.59 1027.20 1027.46 1027.47 1027.09 1026.49 1025.96 1025.43 1024.67 1023.04 1022.29 1022.02 1021.57 1021.58 1021.63 1021.52 1021.43 1021.38 1020.86 1020.59 1020.68 1020.59 1020.45 1020.36 1020.47 1020.34 1019.68 1019.38 1019.19 1019.15 1019.21 1019.16 1019.04 1019.17 1019.08 1018.88 1018.60 1018.28 1017.88 1017.48 1017.11 1016.60 1016.04
1019.71 1022.19 1022.64 1023.69 1024.06 1024.94 1025.62 1025.94 1026.03 1025.91 1026.34 1027.02 1027.61 1027.59 1027.52 1027.34 1026.91 1026.10 1025.36 1023.95 1022.81 1022.14 1021.97 1021.75 1021.76 1021.64 1021.59 1021.15 1020.85 1020.29 1020.07 1020.23 1020.16 1020.12 1019.44 1019.71 1019.57 1019.31 1019.02 1018.72 1018.83 1018.91 1018.90 1018.87 1018.68 1018.53 1018.38 1018.10 1017.75 1017.43 1017.08 1016.65 1016.12 1015.61
1021.05 1022.43 1023.02 1023.65 1024.70 1025.57 1026.27 1026.66 1026.54 1026.54 1026.91 1027.20 1027.61 1027.90 1027.73 1027.65 1027.19 1025.89 1024.28 1022.88 1022.73 1022.13 1022.00 1021.81 1021.58 1021.40 1021.16 1020.79 1020.54 1020.13 1019.68 1019.59 1019.88 1019.80 1018.89 1018.92 1018.94 1018.99 1018.69 1018.49 1018.44 1018.30 1018.19 1018.25 1018.22 1018.03 1017.92 1017.77 1017.41 1017.03 1016.62 1016.18 1015.81 1015.33
1022.23 1022.81 1023.15 1023.49 1024.21 1025.17 1026.42 1026.61 1026.75 1026.70 1026.91 1027.00 1027.25 1027.89 1027.89 1027.49 1026.21 1024.50 1022.75 1022.14 1022.05 1021.52 1021.26 1020.95 1020.90 1020.78 1020.51 1020.04 1019.78 1019.49 1019.47 1019.51 1019.42 1018.98 1018.72 1018.76 1018.62 1018.53 1018.43 1018.31 1018.12 1018.05 1017.99 1018.00 1017.92 1017.89 1017.66 1017.36 1017.09 1016.75 1016.46 1016.08 1015.75 1015.37
1022.20 1022.70 1023.14 1024.07 1024.48 1024.98 1025.97 1026.51 1026.91 1026.33 1026.00 1025.83 1026.44 1026.77 1026.42 1025.87 1024.60 1023.33 1022.81 1022.83 1022.66 1022.14 1021.66 1021.38 1021.15 1020.91 1020.65 1020.16 1019.87 1019.58 1019.12 1018.91 1018.66 1018.57 1018.47 1018.34 1018.31 1018.46 1018.52 1018.46 1018.36 1018.14 1017.97 1017.89 1017.78 1017.58 1017.36 1017.22 1017.08 1016.91 1016.55 1016.12 1015.81 1015.39
1022.54 1023.00 1023.41 1024.38 1024.98 1025.44 1025.53 1025.50 1025.42 1024.79 1024.14 1024.60 1024.92 1024.80 1024.07 1023.93 1024.14 1024.32 1023.97 1023.95 1023.41 1022.95 1022.53 1022.12 1021.49 1021.22 1020.64 1020.20 1019.66 1019.50 1019.27 1018.96 1018.74 1018.51 1018.39 1018.33 1018.46 1018.86 1019.13 1018.95 1018.73 1018.51 1018.27 1017.95 1017.62 1017.43 1017.36 1017.30 1017.16 1017.01 1016.74 1016.54 1016.22 1015.82
1023.16 1023.28 1024.21 1024.75 1025.22 1025.14 1024.23 1023.98 1024.07 1023.63 1023.55 1023.45 1023.57 1023.56 1023.47 1024.28 1025.45 1025.54 1025.20 1024.87 1024.55 1024.43 1024.21 1023.71 1023.04 1022.36 1021.85 1021.38 1020.74 1020.33 1020.29 1019.99 1019.72 1019.52 1019.24 1019.28 1019.61 1019.86 1019.68 1019.52 1019.35 1019.15 1018.85 1018.44 1017.99 1017.68 1017.53 1017.64 1017.52 1017.38 1017.21 1016.88 1016.80 1016.64
1023.69 1023.94 1024.61 1025.05 1025.11 1024.49 1024.29 1024.28 1024.02 1024.09 1024.19 1023.88 1023.76 1024.03 1024.02 1024.85 1025.70 1026.10 1025.94 1025.96 1025.66 1025.17 1024.71 1024.28 1023.73 1023.33 1022.78 1022.13 1021.62 1021.21 1020.97 1021.03 1020.84 1020.73 1020.58 1020.51 1020.53 1020.51 1020.40 1020.21 1019.96 1019.64 1019.28 1018.85 1018.36 1018.30 1018.35 1018.49 1018.60 1018.54 1018.40 1018.31 1018.23 1018.05
1024.50 1024.75 1025.25 1025.97 1025.44 1024.76 1024.83 1025.07 1025.06 1024.88 1024.95 1024.68 1024.46 1024.53 1024.74 1025.31 1026.49 1026.90 1027.09 1026.67 1026.29 1025.94 1025.78 1025.42 1024.57 1023.82 1023.34 1022.72 1022.65 1022.58 1022.61 1022.44 1022.17 1021.95 1021.67 1021.47 1021.44 1021.39 1021.14 1020.81 1020.42 1020.03 1019.68 1019.47 1019.38 1019.30 1019.34 1019.48 1019.58 1019.57 1019.56 1019.54 1019.48 1019.41
1025.68 1025.86 1026.18 1026.58 1026.10 1025.96 1026.14 1025.97 1025.99 1025.68 1025.45 1025.83 1025.40 1025.33 1026.00 1026.63 1027.70 1028.27 1027.96 1027.63 1027.40 1027.23 1026.92 1026.28 1025.44 1024.57 1024.32 1024.14 1023.96 1023.71 1023.55 1023.43 1023.16 1022.93 1022.72 1022.44 1022.39 1022.17 1021.83 1021.51 1021.15 1020.79 1020.54 1020.42 1020.41 1020.37 1020.45 1020.49 1020.62 1020.69 1020.73 1020.78 1020.82 1020.79
Thickness
5487 5494 5500 5505 5509 5513 5517 5523 5528 5531 5535 5541 5548 5554 5561 5567 5574 5579 5576 5580 5585 5564 5570 5578 5580 5573 5567 5563 5559 5553 5552 5541 5530 5526 5523 5518 5513 5524 5522 5524 5518 5524 5508 5492 5479 5489 5500 5519 5514 5508 5507 5498 5492 5488
5481 5489 5494 5500 5505 5509 5513 5517 5523 5526 5529 5534 5541 5547 5553 5559 5565 5572 5570 5572 5575 5571 5568 5566 5571 5574 5575 5572 5559 5541 5556 5544 5539 5520 5505 5498 5502 5485 5503 5520 5509 5516 5517 5510 5500 5514 5517 5511 5511 5503 5490 5482 5471 5462
5470 5479 5487 5495 5501 5505 5508 5512 5517 5521 5524 5527 5532 5538 5544 5550 5556 5562 5559 5561 5562 5547 5550 5558 5561 5562 5564 5565 5564 5552 5531 5541 5533 5529 5511 5501 5509 5498 5500 5493 5496 5510 5506 5501 5494 5516 5512 5508 5499 5482 5474 5466 5459 5450
5461 5470 5478 5486 5495 5500 5505 5509 5513 5516 5519 5522 5525 5531 5536 5540 5544 5550 5551 5551 5550 5534 5524 5541 5545 5552 5552 5555 5555 5553 5546 5532 5522 5513 5499 5494 5498 5507 5493 5507 5505 5514 5499 5498 5494 5509 5503 5496 5487 5474 5461 5453 5444 5436
5451 5463 5471 5479 5488 5495 5500 5505 5509 5511 5514 5516 5518 5522 5527 5531 5533 5537 5540 5541 5543 5543 5523 5523 5534 5537 5539 5543 5543 5540 5535 5524 5513 5504 5496 5497 5493 5491 5480 5479 5491 5499 5500 5492 5497 5499 5487 5481 5469 5454 5446 5439 5432 5421
5441 5452 5462 5471 5481 5489 5495 5500 5504 5508 5509 5509 5511 5513 5517 5520 5524 5526 5523 5528 5532 5534 5516 5514 5518 5521 5524 5528 5529 5525 5523 5516 5510 5506 5493 5495 5502 5494 5480 5484 5497 5500 5499 5495 5490 5479 5468 5459 5448 5442 5433 5423 5415 5404
5429 5439 5450 5460 5469 5480 5489 5495 5501 5503 5504 5504 5504 5506 5508 5511 5514 5513 5513 5519 5521 5522 5504 5501 5504 5507 5511 5508 5504 5505 5504 5505 5506 5497 5486 5487 5486 5487 5471 5484 5496 5489 5484 5479 5471 5464 5448 5441 5433 5426 5414 5407 5398 5389
5419 5429 5438 5449 5459 5470 5481 5488 5495 5499 5500 5499 5498 5498 5498 5499 5500 5502 5504 5507 5509 5503 5497 5491 5497 5493 5499 5493 5491 5485 5487 5490 5491 5489 5475 5477 5471 5468 5477 5484 5473 5468 5466 5458 5451 5446 5435 5423 5414 5405 5399 5393 5388 5379
5409 5416 5424 5438 5449 5459 5469 5479 5488 5493 5496 5492 5490 5487 5486 5489 5491 5495 5493 5495 5494 5492 5488 5482 5493 5495 5483 5478 5473 5473 5472 5476 5468 5467 5466 5465 5467 5472 5463 5454 5452 5447 5444 5433 5428 5421 5415 5408 5400 5392 5382 5375 5369 5366
5398 5405 5413 5424 5436 5447 5458 5467 5477 5484 5486 5484 5479 5475 5471 5477 5482 5481 5479 5473 5472 5471 5472 5479 5475 5481 5479 5464 5462 5461 5453 5459 5463 5458 5450 5454 5459 5449 5442 5436 5433 5429 5426 5418 5410 5405 5398 5390 5382 5375 5368 5360 5350 5342
5388 5397 5404 5414 5423 5434 5446 5454 5463 5470 5471 5469 5460 5459 5461 5465 5467 5462 5458 5460 5456 5460 5458 5461 5460 5469 5459 5460 5454 5440 5441 5436 5443 5439 5442 5443 5446 5434 5425 5419 5412 5409 5404 5396 5391 5384 5374 5367 5362 5358 5353 5344 5334 5327
5374 5383 5392 5400 5409 5420 5430 5439 5447 5454 5452 5455 5457 5453 5451 5450 5447 5447 5449 5442 5449 5456 5445 5450 5448 5448 5439 5441 5436 5425 5429 5418 5416 5410 5420 5430 5423 5413 5409 5404 5397 5391 5385 5380 5372 5365 5359 5352 5346 5339 5332 5326 5320 5314
5364 5370 5380 5388 5396 5406 5414 5426 5433 5434 5438 5442 5438 5432 5436 5428 5441 5447 5448 5442 5444 5435 5432 5433 5432 5426 5422 5422 5416 5412 5409 5407 5388 5399 5408 5407 5405 5397 5390 5385 5382 5376 5370 5360 5358 5352 5345 5341 5333 5321 5315 5309 5303 5301
5356 5362 5369 5376 5384 5395 5403 5411 5418 5422 5422 5419 5421 5423 5422 5422 5425 5420 5422 5420 5416 5420 5420 5418 5412 5413 5400 5402 5394 5398 5378 5374 5387 5381 5392 5390 5390 5383 5374 5370 5366 5361 5348 5343 5344 5340 5331 5322 5318 5314 5301 5294 5288 5289
5349 5353 5360 5368 5373 5381 5389 5395 5405 5411 5403 5401 5403 5402 5405 5394 5402 5406 5406 5408 5404 5404 5405 5401 5395 5393 5379 5377 5372 5366 5370 5370 5373 5381 5378 5376 5372 5367 5363 5358 5352 5342 5334 5330 5331 5323 5316 5309 5303 5303 5298 5290 5283 5278
5343 5347 5355 5365 5366 5370 5377 5386 5389 5391 5380 5380 5373 5376 5376 5381 5384 5390 5392 5393 5390 5389 5385 5383 5373 5377 5371 5362 5361 5356 5354 5357 5368 5356 5357 5355 5357 5353 5347 5341 5337 5332 5326 5322 5317 5310 5305 5297 5291 5292 5288 5280 5275 5266
5342 5348 5352 5357 5361 5363 5368 5371 5369 5362 5362 5360 5358 5362 5361 5362 5372 5377 5378 5380 5376 5376 5374 5361 5367 5369 5341 5342 5343 5341 5342 5351 5347 5348 5343 5342 5345 5339 5334 5329 5322 5319 5316 5309 5305 5300 5296 5290 5281 5276 5277 5280 5270 5262
5339 5345 5346 5348 5353 5355 5352 5349 5344 5345 5345 5341 5347 5347 5353 5353 5348 5348 5359 5361 5365 5361 5357 5357 5343 5330 5332 5334 5339 5336 5334 5332 5330 5334 5338 5334 5331 5326 5321 5319 5317 5311 5307 5302 5293 5290 5285 5277 5275 5275 5270 5267 5263 5259
5339 5341 5340 5342 5346 5340 5333 5330 5334 5331 5325 5324 5326 5332 5334 5338 5339 5338 5340 5342 5343 5343 5340 5334 5321 5331 5333 5324 5326 5319 5313 5317 5331 5331 5325 5321 5315 5313 5309 5306 5303 5301 5297 5291 5288 5285 5279 5269 5263 5263 5262 5259 5258 5255
5334 5335 5333 5338 5341 5328 5321 5316 5321 5323 5321 5321 5317 5323 5319 5322 5323 5325 5327 5331 5334 5336 5337 5334 5329 5325 5320 5322 5320 5320 5319 5315 5312 5314 5320 5311 5306 5302 5299 5297 5297 5295 5290 5285 5279 5268 5270 5270 5264 5263 5258 5254 5253 5253
5325 5321 5326 5329 5321 5319 5312 5304 5305 5307 5310 5310 5304 5306 5302 5310 5313 5313 5316 5316 5319 5324 5322 5320 5317 5323 5322 5317 5314 5311 5310 5305 5305 5304 5308 5310 5304 5295 5293 5290 5287 5282 5277 5275 5270 5268 5259 5262 5262 5259 5256 5253 5250 5248
5316 5317 5314 5313 5306 5302 5299 5296 5300 5297 5298 5292 5293 5292 5279 5278 5297 5300 5301 5305 5310 5309 5310 5314 5318 5317 5314 5311 5310 5305 5304 5301 5298 5295 5290 5289 5291 5289 5286 5281 5275 5275 5269 5266 5263 5261 5261 5257 5256 5253 5250 5250 5248 5247
5312 5310 5302 5297 5293 5284 5286 5288 5285 5285 5281 5277 5272 5277 5269 5263 5269 5283 5290 5301 5300 5301 5306 5306 5309 5310 5308 5306 5300 5297 5293 5291 5290 5288 5284 5281 5280 5277 5274 5274 5267 5264 5262 5261 5256 5254 5252 5252 5250 5247 5246 5246 5245 5245
5307 5295 5291 5279 5272 5273 5278 5268 5272 5272 5261 5259 5257 5266 5262 5259 5267 5274 5281 5276 5289 5292 5295 5302 5298 5295 5291 5288 5287 5289 5289 5285 5283 5280 5275 5269 5269 5272 5269 5267 5263 5258 5257 5256 5250 5247 5245 5244 5240 5241 5240 5239 5239 5241
5287 5278 5272 5273 5269 5262 5255 5261 5263 5278 5277 5265 5260 5254 5247 5243 5249 5254 5270 5275 5276 5281 5285 5283 5281 5283 5280 5278 5276 5279 5276 5273 5272 5271 5274 5258 5260 5258 5262 5259 5253 5249 5247 5244 5243 5240 5237 5238 5237 5236 5234 5234 5234 5236
5267 5274 5260 5252 5250 5253 5241 5258 5261 5263 5245 5241 5251 5228 5217 5227 5238 5258 5266 5273 5270 5274 5273 5273 5272 5269 5270 5268 5269 5267 5268 5262 5256 5255 5264 5255 5252 5250 5254 5253 5250 5248 5243 5240 5237 5237 5235 5232 5232 5232 5232 5231 5230 5229
5265 5272 5266 5262 5260 5249 5231 5226 5230 5223 5237 5240 5227 5215 5217 5234 5233 5260 5269 5270 5273 5271 5270 5268 5266 5264 5266 5268 5260 5258 5252 5247 5246 5249 5248 5244 5243 5242 5242 5243 5244 5241 5237 5234 5231 5228 5227 5227 5226 5226 5225 5224 5221 5219
5253 5252 5257 5252 5254 5240 5229 5212 5217 5231 5235 5239 5227 5233 5241 5241 5254 5260 5260 5254 5250 5252 5253 5250 5246 5244 5244 5245 5243 5241 5242 5238 5239 5238 5237 5237 5235 5232 5231 5229 5228 5227 5226 5224 5222 5221 5220 5219 5216 5214 5213 5214 5211 5209
5262 5248 5247 5255 5244 5242 5233 5247 5247 5249 5253 5244 5240 5231 5242 5249 5239 5234 5234 5229 5230 5232 5232 5231 5232 5226 5227 5227 5229 5228 5228 5229 5231 5236 5239 5237 5232 5223 5216 5216 5215 5214 5214 5214 5213 5211 5209 5206 5203 5200 5199 5197 5194 5192
5255 5243 5234 5224 5231 5239 5250 5250 5245 5240 5242 5244 5243 5245 5244 5225 5211 5208 5209 5208 5206 5201 5198 5197 5198 5200 5201 5201 5203 5206 5205 5206 5207 5212 5219 5220 5210 5203 5202 5201 5200 5199 5198 5198 5199 5198 5195 5190 5187 5184 5181 5181 5176 5173
5227 5243 5232 5230 5230 5233 5232 5218 5217 5218 5219 5225 5218 5230 5236 5208 5198 5191 5191 5184 5180 5178 5178 5174 5168 5163 5168 5176 5182 5187 5192 5187 5188 5188 5190 5189 5188 5187 5187 5186 5185 5184 5183 5184 5186 5183 5177 5171 5166 5164 5161 5158 5154 5152
5232 5231 5221 5222 5222 5214 5208 5217 5206 5204 5201 5205 5213 5190 5195 5192 5174 5174 5168 5166 5166 5163 5158 5154 5152 5150 5152 5159 5162 5164 5164 5165 5167 5169 5171 5171 5170 5169 5169 5169 5169 5169 5169 5168 5165 5161 5157 5153 5149 5146 5142 5138 5134 5131
5205 5208 5205 5196 5204 5207 5191 5194 5189 5200 5188 5179 5177 5173 5168 5166 5153 5151 5149 5148 5147 5143 5139 5138 5139 5141 5140 5141 5142 5144 5146 5147 5149 5150 5151 5152 5151 5151 5151 5151 5152 5152 5151 5149 5145 5142 5138 5135 5130 5126 5122 5117 5113 5109